Showing default

JILIN-01 KUANFU 01C, 52443

Orbit data source: Space-Track

JILIN-01 KUANFU 01C, 52443 is a payload satellite owned by Changguang WJ (CN) in SSO that was launched on Thu, 05 May 2022 UTC via a CHANG ZHENG 2D launch vehicle from the Taiyaun Space Center, China (TSC). Payload-class satellites include a variety of spacecraft equipped with specific instruments for various scientific and technological missions. These include communications satellites like Starlink; space stations such as the ISS; scientific satellites like the Hubble; Earth observation satellites from companies like Planet Labs, Umbra, and HawkEye 360; GPS; miniature CubeSats for education and research; and military/defense satellites.

Loading next visibility...
Identifier
52443, 2022-048A
Orbit
SSO
Country
Flag of CNCN / PRC
Related business
Manufacturer
HARB/CGSTL
Mission
Operational Commercial Imaging
Bus & Motor
JL-1, Unknown motor
Mass
1,250 kg wet, 1,250 kg dry
Launch date (UTC)
2022-05-05 (4 years ago)
Launch vehicle
CHANG ZHENG 2D
Launch site
Taiyaun Space Center, China (TSC)
Object type
Payload
Rocket body
Debris
Shape & HBR
Box + 2 Pan, 0.8 m
Radar Cross Section
2.000 m², Large (>1 m²)

Expand to show TLE details & history
Last TLE update: 5 hours ago

TLE from 5 hours ago
0 JILIN-01 KUANFU 01C
1 52443U 22048A   26163.85135028  .00002417  00000-0  15455-3 0  9991
2 52443  97.5259 241.1101 0017564 339.8685  20.1849 15.09442934226546
Epoch: 2026-06-12T20:25Z
TLE epoch observation values (Epoch: 2026-06-12T20:25:56.664Z)
Latitude
-0.00004°
Longitude
33.44914°
Altitude
529.572 km
Speed
7.604 km/s
True Right ascension
16h 04m 26s
True Declination
0° 00' 00"
Sunlit
Object was in full shadow at epoch
Visualization orbit readout
Latitude
Unknown
Longitude
Unknown
Altitude
Unknown
Speed
Unknown
Apparent Right ascension
Unknown
Apparent Declination
Unknown
Sunlit
N/A
Visualization observer readout
Local Sidereal Time
11:28:56
Azimuth
Unknown
Elevation
Unknown
Doppler factor
Unknown
Orbital elements
Apogee altitude
547.028 km
Perigee altitude
522.744 km
Semi-major axis
6,913.023 km
Eccentricity
0.00176
Inclination
97.5259°
RAAN
241.1101°
Arg. of periapsis
339.8685°
True anomaly
20.25449°
Mean anomaly
20.1849°
Eccentric anomaly
20.21968°
Mean motion
3.77608 °/min
Orbital period
95.34 mins
BSTAR
0.00015455
Loading maneuver chart data...
Computing Atmospheric mass density...
Loading historical data...
Loading historical data...
Loading historical data...
Loading historical data...
Loading historical data...
Loading historical data...
Loading historical data...

Documentation

Showing up to 5 results
|